Regional Weather Roundup
Issued by NWS

Home | Current Version | Previous Version | Graphics & Text | Print | Product List | Glossary On
Versions: 1 2 3 4 5 6 7 8 9 10 11 12 13 14 15 16 17 18 19 20 21 22 23 24 25 26 27 28 29 30 31 32 33 34 35 36 37 38 39 40 41 42 43 44 45 46 47 48 49 50
000
ASUS43 KLOT 190805
RWRIL

ILLINOIS REGIONAL WEATHER ROUNDUP
NATIONAL WEATHER SERVICE CHICAGO/ROMEOVILLE IL
300 AM CDT THU OCT 19 2017

NOTE: "FAIR" INDICATES FEW OR NO CLOUDS BELOW 12,000 FEET WITH NO
SIGNIFICANT WEATHER AND/OR OBSTRUCTIONS TO VISIBILITY.

* THESE STATIONS ARE NOT UNDER NWS QUALITY CONTROL. THEY ALSO MAY NOT
  REPORT WEATHER SUCH AS PRECIPITATION OR FOG.

ILZ001-002-007-009-015-016-024-190900-
NORTHWEST ILLINOIS

CITY           SKY/WX    TMP DP  RH WIND       PRES   REMARKS
MOLINE         CLEAR     55  44  66 W3        30.05R
STERLING*      CLEAR     49  45  86 CALM        N/A
SAVANNA*       CLEAR     56  46  70 W6        30.05R
$$

ILZ003-004-008-010-011-017-018-190900-
NORTH CENTRAL ILLINOIS

CITY           SKY/WX    TMP DP  RH WIND       PRES   REMARKS
ROCKFORD       CLEAR     55  44  66 SW5       30.06R
FREEPORT*      CLEAR     51  44  77 W6        30.06R
ROCHELLE*      CLEAR     46  43  91 CALM      30.05S
DE KALB*       CLEAR     46  44  93 S6        30.05S
PERU*          CLEAR     50  46  83 SW6       30.07R
$$

ILZ005-006-012>014-019>023-190900-
NORTHEAST ILLINOIS

CITY           SKY/WX    TMP DP  RH WIND       PRES   REMARKS
CHICAGO-OHARE  CLEAR     57  45  64 SW10      30.03S
CHICAGO-MIDWAY PTCLDY    57  47  69 SW10      30.04S
AURORA         CLEAR     52  46  80 SW7       30.06R
LANSING*       CLEAR     50  47  88 SW6       30.07R
JOLIET*        CLEAR     55  48  78 SW3       30.06S
WAUKEGAN       CLEAR     56  45  66 SW8       30.01R
DUPAGE AIRPORT CLEAR     54  47  77 SW9       30.04R
KANKAKEE*      CLEAR     53  46  76 SW8       30.08F
WHEELING       PTCLDY    57  47  69 SW6       30.04R
MORRIS*        CLEAR     53  47  79 SW6       30.05S
NORTHERLY ISL    N/A     59  45  59 SW13        N/A
$$

LMZ740>746-190900-
SOUTHERN LAKE MICHIGAN

STATION/POSITION SKY/WX   TEMP    WIND        PRES    VSBY  WAVE
                          AIR SEA DIR/SP/G                  HT/PER
                          (F)     (DEG/KT/KT) (MB)    (MI)  (FT/S)
SOUTHERN BUOY              62 61  240/ 17/ 19 1015.5          4/ 6
WILMETTE HARBOR            60 57  230/ 14/ 19   N/A           2/ 3
HARRISON CRIB              63     230/ 21/ 27   N/A
BURNHAM HARBOR             59     260/  7/ 12   N/A
CALUMET HARBOR             58     210/  7/ 11 1016.8R
BURNS HARBOR               57     200/ 12/ 16 1018.3R
MICHIGAN CITY              57     190/ 15/ 17   N/A
MICHIGAN CITY 6N           58 58  210/ 14/ 19   N/A           2/ 3
ST. JOSEPH                 59 58  220/ 16/ 19 1017.9S         4/ 4
$$

ILZ025>027-034>036-040-047-049-050-058-095>099-190900-
WEST-CENTRAL ILLINOIS

CITY           SKY/WX    TMP DP  RH WIND       PRES   REMARKS
QUINCY         CLEAR     53  45  74 S9        30.08S
GALESBURG*     CLEAR     49  45  83 S3        30.08R
MACOMB*        CLEAR     54  46  73 SW7       30.09S
JACKSONVILLE*  CLEAR     56  47  72 S7        30.10S
PITTSFIELD*    CLEAR     56  48  74 S6        30.11S
$$

ILZ028>032-037-038-041>044-048-051>054-059>061-190900-
CENTRAL ILLINOIS

CITY           SKY/WX    TMP DP  RH WIND       PRES   REMARKS
PONTIAC        CLEAR     55  50  82 SW9       30.08S
BLOOMINGTON    CLEAR     54  47  77 SW12      30.10S
DECATUR        CLEAR     55  48  77 SW9       30.12S
PEORIA         CLEAR     51  47  86 S6        30.08R
LACON*         CLEAR     55  49  78 SW8       30.06R
LINCOLN*       CLEAR     52  49  88 S3        30.09F
SPRINGFIELD    CLEAR     54  48  80 S6        30.11R
TAYLORVILLE    CLEAR     53  47  81 S7        30.12S
$$

ILZ033-039-045-046-055>057-062-063-190900-
EAST-CENTRAL ILLINOIS

CITY           SKY/WX    TMP DP  RH WIND       PRES   REMARKS
CHAMPAIGN      CLEAR     51  46  83 S9        30.12S
DANVILLE*      CLEAR     52  46  78 SW10      30.10S
RANTOUL*       CLEAR     56  50  79 SW7       30.11S
MATTOON        CLEAR     54  48  80 S7        30.13S
PARIS*         CLEAR     54  48  81 SW10      30.15S
$$

ILZ079-100>102-190900-
SOUTHWEST ILLINOIS

CITY           SKY/WX    TMP DP  RH WIND       PRES   REMARKS
ALTON          CLEAR     54  49  85 CALM      30.14R
BELLEVILLE     CLEAR     49  46  89 S3        30.17S
CAHOKIA*       CLEAR     54  46  74 S6        30.14R
SPARTA*        CLEAR     56  47  72 S5        30.17R
$$

ILZ064>066-069>071-074>076-080>082-084>086-088>090-092>094-190900-
SOUTH-CENTRAL ILLINOIS

CITY           SKY/WX    TMP DP  RH WIND       PRES   REMARKS
CARBONDALE     CLEAR     50  48  93 S5        30.17R
EFFINGHAM*     CLEAR     51  47  88 CALM      30.17S
MARION         CLEAR     56  48  76 S5        30.18R
MT. VERNON     CLEAR     46  46 100 CALM      30.17S
CENTRALIA*     PTCLDY    52  48  87 S3        30.16R
SALEM*         CLEAR     54  47  77 S3        30.16S
METROPOLIS*    CLEAR     55  47  75 S3        30.20R
$$

ILZ067-068-072-073-078-083-087-091-190900-
SOUTHEAST ILLINOIS

CITY           SKY/WX    TMP DP  RH WIND       PRES   REMARKS
LAWRENCEVILLE  CLEAR     49  45  86 S7        30.18S
FLORA*         CLEAR     48  46  90 S3        30.17S
FAIRFIELD*     CLEAR     52  47  84 CALM      30.16S
HARRISBURG*    CLEAR     47  45  91 CALM      30.19R
ROBINSON*      CLEAR     44  42  95 S3        30.18S
CARMI*         CLEAR     47  46  96 S5        30.18S
$$

ABBREVIATIONS USED IN REMARKS
   TC - TEMPERATURE IN CELSIUS
  WCI - WIND CHILL INDEX
   HX - HEAT INDEX
  VSB - VISIBILITY
$$




USA.gov is the U.S. government's official web portal to all federal, state and local government web resources and services.